| time (UTC) | temp C | wind direction | speed KPH | gust KPH | rain 1hr cm | rain 24hr cm | rain mn cm | humidity % | barometer mb |
| 20260509185543 | 30 | 222 | 0.0 | 6.4 | 0.00 | 0.00 | 0.00 | 62 | 1011.1 |
| 20260509185043 | 30 | 0 | 0.0 | 6.4 | 0.00 | 0.00 | 0.00 | 65 | 1011.2 |
| 20260509184549 | 30 | 0 | 0.0 | 6.4 | 0.00 | 0.00 | 0.00 | 62 | 1011.2 |
| 20260509184044 | 29 | 0 | 0.0 | 6.4 | 0.00 | 0.00 | 0.00 | 66 | 1011.2 |
| 20260509183543 | 29 | 220 | 0.0 | 1.6 | 0.00 | 0.00 | 0.00 | 64 | 1011.3 |
| 20260509183050 | 28 | 0 | 0.0 | 0.0 | 0.00 | 0.00 | 0.00 | 68 | 1011.3 |
| 20260509182542 | 28 | 0 | 0.0 | 0.0 | 0.00 | 0.00 | 0.00 | 67 | 1011.2 |
| 20260509182042 | 28 | 0 | 0.0 | 0.0 | 0.00 | 0.00 | 0.00 | 67 | 1011.3 |
| 20260509181552 | 28 | 0 | 0.0 | 1.6 | 0.00 | 0.00 | 0.00 | 65 | 1011.5 |
| 20260509181044 | 28 | 0 | 0.0 | 1.6 | 0.00 | 0.00 | 0.00 | 65 | 1011.5 |
| 20260509180542 | 28 | 0 | 0.0 | 1.6 | 0.00 | 0.00 | 0.00 | 65 | 1011.7 |
| 20260509180053 | 28 | 0 | 0.0 | 8.0 | 0.00 | 0.00 | 0.00 | 63 | 1011.7 |
| 20260509175543 | 28 | 0 | 1.6 | 8.0 | 0.00 | 0.00 | 0.00 | 63 | 1011.8 |
| 20260509175042 | 28 | 0 | 0.0 | 3.2 | 0.00 | 0.00 | 0.00 | 65 | 1011.8 |
| 20260509174550 | 28 | 177 | 0.0 | 4.8 | 0.00 | 0.00 | 0.00 | 68 | 1011.9 |
| 20260509174042 | 28 | 0 | 0.0 | 4.8 | 0.00 | 0.00 | 0.00 | 70 | 1011.9 |
| 20260509173542 | 27 | 31 | 0.0 | 6.4 | 0.00 | 0.00 | 0.00 | 68 | 1012.0 |
| 20260509173116 | 27 | 0 | 0.0 | 6.4 | 0.00 | 0.00 | 0.00 | 71 | 1011.9 |
| 20260509172545 | 27 | 57 | 0.0 | 6.4 | 0.00 | 0.00 | 0.00 | 70 | 1012.0 |
| 20260509172044 | 27 | 91 | 1.6 | 6.4 | 0.00 | 0.00 | 0.00 | 72 | 1012.1 |
| 20260509171549 | 27 | 0 | 0.0 | 8.0 | 0.00 | 0.00 | 0.00 | 72 | 1012.1 |
| 20260509171042 | 27 | 0 | 0.0 | 8.0 | 0.00 | 0.00 | 0.00 | 69 | 1012.1 |
| 20260509170546 | 27 | 62 | 0.0 | 9.7 | 0.00 | 0.00 | 0.00 | 69 | 1012.2 |
| 20260509170100 | 27 | 0 | 0.0 | 9.7 | 0.00 | 0.00 | 0.00 | 71 | 1012.2 |
| 20260509165542 | 26 | 0 | 1.6 | 9.7 | 0.00 | 0.00 | 0.00 | 72 | 1012.3 |
| 20260509165043 | 26 | 0 | 0.0 | 4.8 | 0.00 | 0.00 | 0.00 | 74 | 1012.4 |
| 20260509164558 | 26 | 77 | 0.0 | 1.6 | 0.00 | 0.00 | 0.00 | 75 | 1012.4 |
| 20260509164043 | 26 | 0 | 0.0 | 4.8 | 0.00 | 0.00 | 0.00 | 76 | 1012.5 |
| 20260509163542 | 26 | 0 | 0.0 | 4.8 | 0.00 | 0.00 | 0.00 | 74 | 1012.6 |
| 20260509163052 | 26 | 0 | 0.0 | 4.8 | 0.00 | 0.00 | 0.00 | 72 | 1012.6 |
| 20260509162543 | 26 | 0 | 0.0 | 4.8 | 0.00 | 0.00 | 0.00 | 76 | 1012.7 |
| 20260509162042 | 26 | 0 | 0.0 | 4.8 | 0.00 | 0.00 | 0.00 | 76 | 1012.6 |
| 20260509161549 | 26 | 0 | 0.0 | 0.0 | 0.00 | 0.00 | 0.00 | 75 | 1012.6 |
| 20260509161043 | 26 | 0 | 0.0 | 0.0 | 0.00 | 0.00 | 0.00 | 76 | 1012.6 |
| 20260509160543 | 26 | 0 | 0.0 | 1.6 | 0.00 | 0.00 | 0.00 | 78 | 1012.4 |
| 20260509160054 | 25 | 0 | 0.0 | 1.6 | 0.00 | 0.00 | 0.00 | 80 | 1012.3 |
| 20260509155543 | 25 | 0 | 0.0 | 17.7 | 0.00 | 0.00 | 0.00 | 81 | 1012.3 |
| 20260509155042 | 25 | 0 | 0.0 | 17.7 | 0.00 | 0.00 | 0.00 | 82 | 1012.3 |
| 20260509154553 | 25 | 347 | 0.0 | 9.7 | 0.00 | 0.00 | 0.00 | 82 | 1012.4 |
| 20260509154043 | 25 | 66 | 1.6 | 9.7 | 0.00 | 0.00 | 0.00 | 83 | 1012.3 |
| 20260509153546 | 25 | 28 | 0.0 | 14.5 | 0.00 | 0.00 | 0.00 | 83 | 1012.3 |
| 20260509153053 | 24 | 0 | 1.6 | 14.5 | 0.00 | 0.00 | 0.00 | 84 | 1012.2 |
| 20260509152542 | 24 | 0 | 6.4 | 14.5 | 0.00 | 0.00 | 0.00 | 83 | 1012.2 |
| 20260509152045 | 23 | 352 | 1.6 | 12.9 | 0.00 | 0.00 | 0.00 | 85 | 1012.2 |
| 20260509151610 | 23 | 33 | 4.8 | 12.9 | 0.00 | 0.00 | 0.00 | 84 | 1012.2 |
| 20260509151045 | 24 | 38 | 3.2 | 11.3 | 0.00 | 0.00 | 0.00 | 84 | 1012.3 |
| 20260509150542 | 24 | 0 | 0.0 | 12.9 | 0.00 | 0.00 | 0.00 | 84 | 1012.3 |
| 20260509150051 | 24 | 0 | 3.2 | 12.9 | 0.00 | 0.00 | 0.00 | 84 | 1012.3 |
| 20260509145545 | 25 | 352 | 0.0 | 3.2 | 0.00 | 0.00 | 0.00 | 84 | 1012.2 |
| 20260509145045 | 25 | 0 | 0.0 | 3.2 | 0.00 | 0.00 | 0.00 | 84 | 1012.1 |
| 20260509144549 | 25 | 0 | 0.0 | 1.6 | 0.00 | 0.00 | 0.00 | 84 | 1012.0 |
| 20260509144047 | 25 | 0 | 0.0 | 1.6 | 0.00 | 0.00 | 0.00 | 85 | 1011.9 |
| 20260509143545 | 24 | 0 | 0.0 | 1.6 | 0.00 | 0.00 | 0.00 | 85 | 1011.8 |
| 20260509143058 | 24 | 0 | 0.0 | 3.2 | 0.00 | 0.00 | 0.00 | 85 | 1011.9 |
| 20260509142543 | 24 | 0 | 0.0 | 3.2 | 0.00 | 0.00 | 0.00 | 86 | 1011.7 |
| 20260509142045 | 24 | 0 | 0.0 | 3.2 | 0.00 | 0.00 | 0.00 | 87 | 1011.6 |
| 20260509141551 | 23 | 0 | 0.0 | 3.2 | 0.00 | 0.00 | 0.00 | 86 | 1011.7 |
| 20260509141047 | 24 | 0 | 0.0 | 1.6 | 0.00 | 0.00 | 0.00 | 87 | 1011.8 |
| 20260509140545 | 23 | 0 | 0.0 | 1.6 | 0.00 | 0.00 | 0.00 | 88 | 1011.3 |
| 20260509140054 | 23 | 0 | 0.0 | 0.0 | 0.00 | 0.00 | 0.00 | 89 | 1011.1 |
| 20260509135547 | 23 | 0 | 0.0 | 0.0 | 0.00 | 0.00 | 0.00 | 91 | 1011.5 |
| 20260509135048 | 23 | 0 | 0.0 | 0.0 | 0.00 | 0.00 | 0.00 | 92 | 1011.4 |
| 20260509134554 | 23 | 0 | 0.0 | 3.2 | 0.00 | 0.00 | 0.00 | 93 | 1011.2 |
| 20260509134045 | 22 | 0 | 0.0 | 6.4 | 0.00 | 0.00 | 0.00 | 94 | 1010.9 |
| 20260509133545 | 22 | 0 | 0.0 | 9.7 | 0.00 | 0.00 | 0.00 | 94 | 1010.5 |
| 20260509133050 | 22 | 211 | 0.0 | 9.7 | 0.00 | 0.00 | 0.00 | 95 | 1010.4 |
| 20260509132543 | 22 | 223 | 0.0 | 4.8 | 0.00 | 0.00 | 0.00 | 95 | 1010.3 |
| 20260509132044 | 21 | 0 | 0.0 | 9.7 | 0.00 | 0.00 | 0.00 | 95 | 1010.3 |
| 20260509131602 | 21 | 0 | 0.0 | 9.7 | 0.00 | 0.00 | 0.00 | 95 | 1010.3 |
| 20260509131045 | 21 | 216 | 1.6 | 8.0 | 0.00 | 0.00 | 0.00 | 96 | 1010.2 |
| 20260509130545 | 21 | 233 | 0.0 | 8.0 | 0.00 | 0.00 | 0.00 | 96 | 1010.2 |
| 20260509130124 | 21 | 227 | 1.6 | 8.0 | 0.00 | 0.00 | 0.00 | 96 | 1010.1 |
| 20260509125541 | 21 | 0 | 0.0 | 8.0 | 0.00 | 0.00 | 0.00 | 96 | 1010.2 |
| 20260509125045 | 21 | 0 | 1.6 | 8.0 | 0.00 | 0.00 | 0.00 | 96 | 1010.1 |
| 20260509124550 | 21 | 221 | 1.6 | 8.0 | 0.00 | 0.00 | 0.00 | 96 | 1009.9 |
| 20260509124041 | 21 | 224 | 3.2 | 8.0 | 0.00 | 0.00 | 0.00 | 96 | 1010.1 |
| 20260509123548 | 21 | 0 | 0.0 | 9.7 | 0.00 | 0.00 | 0.00 | 96 | 1010.2 |
| 20260509123120 | 21 | 246 | 1.6 | 9.7 | 0.00 | 0.00 | 0.00 | 96 | 1010.1 |
| 20260509122545 | 21 | 0 | 0.0 | 4.8 | 0.00 | 0.00 | 0.00 | 96 | 1010.2 |
| 20260509122044 | 20 | 0 | 0.0 | 1.6 | 0.00 | 0.00 | 0.00 | 96 | 1010.4 |
| 20260509121552 | 20 | 0 | 0.0 | 1.6 | 0.00 | 0.00 | 0.00 | 96 | 1010.5 |
| 20260509121048 | 20 | 0 | 0.0 | 1.6 | 0.00 | 0.00 | 0.00 | 96 | 1010.7 |
| 20260509120542 | 20 | 0 | 0.0 | 1.6 | 0.00 | 0.00 | 0.00 | 96 | 1010.8 |
| 20260509120052 | 20 | 0 | 0.0 | 1.6 | 0.00 | 0.00 | 0.00 | 95 | 1010.9 |
| 20260509115544 | 20 | 0 | 0.0 | 1.6 | 0.00 | 0.00 | 0.00 | 95 | 1010.9 |
| 20260509115044 | 20 | 0 | 0.0 | 1.6 | 0.00 | 0.00 | 0.00 | 95 | 1011.0 |
| 20260509114624 | 20 | 0 | 0.0 | 0.0 | 0.00 | 0.00 | 0.00 | 95 | 1010.9 |
| 20260509114041 | 20 | 0 | 0.0 | 0.0 | 0.00 | 0.00 | 0.00 | 95 | 1011.1 |
| 20260509113544 | 21 | 0 | 0.0 | 0.0 | 0.00 | 0.00 | 0.00 | 95 | 1011.2 |
| 20260509113122 | 21 | 0 | 0.0 | 4.8 | 0.00 | 0.00 | 0.00 | 95 | 1011.5 |
| 20260509112547 | 21 | 0 | 0.0 | 4.8 | 0.00 | 0.00 | 0.00 | 95 | 1011.4 |
| 20260509112041 | 21 | 0 | 0.0 | 1.6 | 0.00 | 0.00 | 0.00 | 95 | 1011.9 |
| 20260509111552 | 21 | 0 | 0.0 | 1.6 | 0.00 | 0.00 | 0.00 | 95 | 1012.1 |
| 20260509111044 | 21 | 0 | 0.0 | 0.0 | 0.00 | 0.00 | 0.00 | 95 | 1012.2 |
| 20260509110544 | 21 | 0 | 0.0 | 0.0 | 0.00 | 0.00 | 0.00 | 95 | 1012.2 |
| 20260509110058 | 21 | 0 | 0.0 | 0.0 | 0.00 | 0.00 | 0.00 | 95 | 1012.3 |
| 20260509105544 | 21 | 0 | 0.0 | 3.2 | 0.00 | 0.18 | 0.00 | 95 | 1012.3 |
| 20260509105045 | 21 | 0 | 0.0 | 3.2 | 0.00 | 0.18 | 0.00 | 95 | 1012.1 |
| 20260509104553 | 21 | 0 | 0.0 | 0.0 | 0.00 | 0.18 | 0.00 | 95 | 1011.9 |
| 20260509104047 | 21 | 0 | 0.0 | 0.0 | 0.00 | 0.18 | 0.00 | 95 | 1012.2 |
| 20260509103544 | 21 | 0 | 0.0 | 1.6 | 0.00 | 0.18 | 0.00 | 95 | 1012.4 |
| 20260509103055 | 21 | 0 | 0.0 | 1.6 | 0.00 | 0.18 | 0.00 | 95 | 1012.4 |
| 20260509102544 | 21 | 0 | 0.0 | 1.6 | 0.00 | 0.18 | 0.00 | 95 | 1012.4 |
| 20260509102043 | 21 | 0 | 0.0 | 0.0 | 0.00 | 0.18 | 0.00 | 95 | 1012.3 |
| 20260509101600 | 21 | 0 | 0.0 | 0.0 | 0.00 | 0.18 | 0.00 | 95 | 1012.2 |
| 20260509101042 | 21 | 0 | 0.0 | 0.0 | 0.00 | 0.18 | 0.00 | 95 | 1012.1 |
| 20260509100545 | 21 | 0 | 0.0 | 0.0 | 0.00 | 0.18 | 0.00 | 95 | 1012.1 |
| 20260509100051 | 21 | 0 | 0.0 | 0.0 | 0.00 | 0.18 | 0.00 | 95 | 1011.9 |
| 20260509095545 | 21 | 0 | 0.0 | 0.0 | 0.00 | 0.18 | 0.00 | 95 | 1012.0 |
| 20260509095041 | 21 | 0 | 0.0 | 0.0 | 0.00 | 0.18 | 0.00 | 95 | 1012.0 |
| 20260509094603 | 21 | 0 | 0.0 | 0.0 | 0.00 | 0.18 | 0.00 | 95 | 1012.0 |
| 20260509094044 | 21 | 0 | 0.0 | 0.0 | 0.00 | 0.18 | 0.00 | 95 | 1011.8 |
| 20260509093544 | 21 | 0 | 0.0 | 0.0 | 0.00 | 0.18 | 0.00 | 95 | 1011.7 |
| 20260509093048 | 21 | 0 | 0.0 | 0.0 | 0.00 | 0.18 | 0.00 | 95 | 1011.7 |
| 20260509092545 | 21 | 0 | 0.0 | 0.0 | 0.00 | 0.18 | 0.00 | 95 | 1011.9 |
| 20260509092041 | 21 | 0 | 0.0 | 0.0 | 0.00 | 0.18 | 0.00 | 94 | 1011.7 |
| 20260509091555 | 21 | 0 | 0.0 | 0.0 | 0.00 | 0.18 | 0.00 | 95 | 1011.8 |
| 20260509091044 | 21 | 0 | 0.0 | 0.0 | 0.00 | 0.18 | 0.00 | 95 | 1011.9 |
| 20260509090541 | 21 | 0 | 0.0 | 0.0 | 0.00 | 0.18 | 0.00 | 95 | 1012.0 |
| 20260509090052 | 21 | 0 | 0.0 | 0.0 | 0.00 | 0.18 | 0.00 | 94 | 1012.1 |
| 20260509085542 | 21 | 0 | 0.0 | 0.0 | 0.00 | 0.18 | 0.00 | 94 | 1012.0 |
| 20260509085045 | 21 | 0 | 0.0 | 0.0 | 0.00 | 0.18 | 0.00 | 95 | 1011.8 |
| 20260509084603 | 21 | 0 | 0.0 | 0.0 | 0.00 | 0.18 | 0.00 | 94 | 1011.8 |
| 20260509084045 | 21 | 0 | 0.0 | 0.0 | 0.00 | 0.18 | 0.00 | 94 | 1011.6 |
| 20260509083545 | 21 | 0 | 0.0 | 0.0 | 0.00 | 0.18 | 0.00 | 94 | 1011.4 |
| 20260509083055 | 21 | 0 | 0.0 | 0.0 | 0.00 | 0.18 | 0.00 | 94 | 1011.2 |
| 20260509082544 | 21 | 0 | 0.0 | 0.0 | 0.00 | 0.18 | 0.00 | 94 | 1011.2 |
| 20260509082045 | 21 | 0 | 0.0 | 0.0 | 0.00 | 0.18 | 0.00 | 94 | 1011.3 |
| 20260509081557 | 21 | 0 | 0.0 | 0.0 | 0.00 | 0.18 | 0.00 | 94 | 1011.6 |
| 20260509081044 | 21 | 0 | 0.0 | 0.0 | 0.00 | 0.18 | 0.00 | 94 | 1011.7 |
| 20260509080542 | 21 | 0 | 0.0 | 0.0 | 0.00 | 0.18 | 0.00 | 94 | 1011.9 |
| 20260509080059 | 21 | 0 | 0.0 | 0.0 | 0.00 | 0.18 | 0.00 | 94 | 1011.8 |
| 20260509075544 | 21 | 0 | 0.0 | 0.0 | 0.00 | 0.18 | 0.00 | 94 | 1011.8 |
| 20260509075044 | 21 | 0 | 0.0 | 0.0 | 0.00 | 0.18 | 0.00 | 94 | 1011.9 |
| 20260509074555 | 21 | 0 | 0.0 | 0.0 | 0.00 | 0.18 | 0.00 | 94 | 1012.0 |
| 20260509074046 | 21 | 0 | 0.0 | 0.0 | 0.00 | 0.18 | 0.00 | 94 | 1012.2 |
| 20260509073542 | 21 | 0 | 0.0 | 0.0 | 0.00 | 0.18 | 0.00 | 94 | 1012.4 |
| 20260509073050 | 21 | 0 | 0.0 | 0.0 | 0.00 | 0.18 | 0.00 | 93 | 1012.2 |
| 20260509072548 | 21 | 0 | 0.0 | 0.0 | 0.00 | 0.18 | 0.00 | 93 | 1012.2 |
| 20260509072045 | 21 | 0 | 0.0 | 0.0 | 0.00 | 0.18 | 0.00 | 93 | 1012.0 |
| 20260509071558 | 21 | 0 | 0.0 | 0.0 | 0.00 | 0.18 | 0.00 | 93 | 1011.8 |
| 20260509071044 | 21 | 0 | 0.0 | 0.0 | 0.00 | 0.18 | 0.00 | 94 | 1011.8 |
| 20260509070548 | 21 | 0 | 0.0 | 0.0 | 0.00 | 0.18 | 0.00 | 94 | 1011.9 |
| 20260509070054 | 21 | 0 | 0.0 | 1.6 | 0.00 | 0.18 | 0.00 | 94 | 1011.8 |
| 20260509065544 | 21 | 0 | 0.0 | 1.6 | 0.00 | 0.18 | 0.00 | 94 | 1011.9 |
| 20260509065044 | 21 | 0 | 0.0 | 0.0 | 0.00 | 0.18 | 0.00 | 94 | 1011.9 |
| 20260509064559 | 21 | 0 | 0.0 | 0.0 | 0.00 | 0.18 | 0.00 | 93 | 1012.1 |
| 20260509064045 | 21 | 0 | 0.0 | 0.0 | 0.00 | 0.18 | 0.00 | 93 | 1012.2 |
| 20260509063546 | 21 | 0 | 0.0 | 0.0 | 0.00 | 0.18 | 0.00 | 93 | 1012.2 |
| 20260509063055 | 21 | 0 | 0.0 | 0.0 | 0.00 | 0.18 | 0.00 | 93 | 1011.9 |
| 20260509062550 | 21 | 0 | 0.0 | 0.0 | 0.00 | 0.18 | 0.00 | 93 | 1011.8 |
| 20260509062046 | 21 | 0 | 0.0 | 0.0 | 0.00 | 0.18 | 0.00 | 93 | 1011.9 |
| 20260509061601 | 21 | 0 | 0.0 | 0.0 | 0.00 | 0.18 | 0.00 | 93 | 1011.9 |
| 20260509061045 | 21 | 0 | 0.0 | 0.0 | 0.00 | 0.18 | 0.00 | 93 | 1012.1 |
| 20260509060545 | 21 | 0 | 0.0 | 0.0 | 0.00 | 0.18 | 0.00 | 93 | 1012.1 |
| 20260509060053 | 21 | 0 | 0.0 | 0.0 | 0.00 | 0.18 | 0.00 | 94 | 1011.7 |
| 20260509055544 | 21 | 0 | 0.0 | 0.0 | 0.00 | 0.18 | 0.00 | 94 | 1011.4 |
| 20260509055040 | 21 | 0 | 0.0 | 0.0 | 0.00 | 0.18 | 0.00 | 94 | 1011.4 |
| 20260509054608 | 21 | 0 | 0.0 | 0.0 | 0.00 | 0.18 | 0.00 | 94 | 1011.4 |
| 20260509054045 | 21 | 0 | 0.0 | 0.0 | 0.00 | 0.18 | 0.00 | 93 | 1011.2 |
| 20260509053545 | 21 | 0 | 0.0 | 0.0 | 0.00 | 0.18 | 0.00 | 93 | 1011.1 |
| 20260509053055 | 21 | 0 | 0.0 | 0.0 | 0.00 | 0.18 | 0.00 | 93 | 1011.1 |
| 20260509052546 | 21 | 0 | 0.0 | 0.0 | 0.00 | 0.18 | 0.00 | 93 | 1011.0 |
| 20260509052044 | 21 | 0 | 0.0 | 0.0 | 0.00 | 0.18 | 0.00 | 93 | 1011.0 |
| 20260509051550 | 21 | 0 | 0.0 | 0.0 | 0.00 | 0.18 | 0.00 | 93 | 1011.2 |
| 20260509051044 | 21 | 0 | 0.0 | 0.0 | 0.00 | 0.18 | 0.00 | 93 | 1011.1 |
| 20260509050544 | 21 | 0 | 0.0 | 0.0 | 0.00 | 0.18 | 0.00 | 94 | 1011.2 |
| 20260509050053 | 20 | 0 | 0.0 | 0.0 | 0.00 | 0.18 | 0.00 | 93 | 1011.2 |
| 20260509045544 | 20 | 0 | 0.0 | 0.0 | 0.00 | 0.18 | 0.18 | 93 | 1011.2 |
| 20260509045044 | 20 | 0 | 0.0 | 0.0 | 0.00 | 0.18 | 0.18 | 93 | 1011.3 |
| 20260509044607 | 20 | 0 | 0.0 | 0.0 | 0.00 | 0.18 | 0.18 | 92 | 1011.3 |
| 20260509044045 | 20 | 0 | 0.0 | 0.0 | 0.00 | 0.18 | 0.18 | 92 | 1011.3 |
| 20260509043547 | 21 | 0 | 0.0 | 0.0 | 0.00 | 0.18 | 0.18 | 92 | 1011.2 |
| 20260509043048 | 21 | 0 | 0.0 | 0.0 | 0.00 | 0.18 | 0.18 | 92 | 1011.2 |
| 20260509042544 | 21 | 0 | 0.0 | 0.0 | 0.00 | 0.18 | 0.18 | 92 | 1011.1 |
| 20260509042045 | 21 | 0 | 0.0 | 0.0 | 0.00 | 0.18 | 0.18 | 92 | 1011.1 |
| 20260509041549 | 21 | 0 | 0.0 | 0.0 | 0.00 | 0.18 | 0.18 | 92 | 1011.1 |
| 20260509041045 | 21 | 0 | 0.0 | 0.0 | 0.00 | 0.18 | 0.18 | 91 | 1011.0 |
| 20260509040548 | 21 | 0 | 0.0 | 0.0 | 0.00 | 0.18 | 0.18 | 92 | 1010.9 |
| 20260509040051 | 21 | 0 | 0.0 | 0.0 | 0.00 | 0.18 | 0.18 | 91 | 1010.9 |
| 20260509035548 | 21 | 0 | 0.0 | 0.0 | 0.00 | 0.18 | 0.18 | 91 | 1010.9 |
| 20260509035045 | 21 | 0 | 0.0 | 0.0 | 0.00 | 0.18 | 0.18 | 91 | 1011.0 |
| 20260509034553 | 21 | 0 | 0.0 | 0.0 | 0.00 | 0.18 | 0.18 | 90 | 1010.8 |
| 20260509034044 | 21 | 0 | 0.0 | 0.0 | 0.00 | 0.18 | 0.18 | 90 | 1010.8 |
| 20260509033544 | 21 | 0 | 0.0 | 0.0 | 0.00 | 0.18 | 0.18 | 91 | 1010.6 |
| 20260509033048 | 21 | 0 | 0.0 | 0.0 | 0.00 | 0.18 | 0.18 | 90 | 1010.6 |
| 20260509032547 | 21 | 0 | 0.0 | 0.0 | 0.00 | 0.18 | 0.18 | 90 | 1010.6 |
| 20260509032043 | 21 | 0 | 0.0 | 0.0 | 0.00 | 0.18 | 0.18 | 90 | 1010.4 |
| 20260509031607 | 21 | 0 | 0.0 | 0.0 | 0.00 | 0.18 | 0.18 | 90 | 1010.6 |
| 20260509031048 | 21 | 0 | 0.0 | 0.0 | 0.00 | 0.18 | 0.18 | 90 | 1010.2 |
| 20260509030547 | 21 | 0 | 0.0 | 0.0 | 0.00 | 0.18 | 0.18 | 90 | 1010.1 |
| 20260509030057 | 21 | 0 | 0.0 | 0.0 | 0.00 | 0.18 | 0.18 | 90 | 1010.1 |
| 20260509025546 | 21 | 0 | 0.0 | 0.0 | 0.00 | 0.18 | 0.18 | 90 | 1010.1 |
| 20260509025049 | 21 | 0 | 0.0 | 0.0 | 0.00 | 0.18 | 0.18 | 90 | 1010.0 |
| 20260509024556 | 21 | 0 | 0.0 | 0.0 | 0.00 | 0.18 | 0.18 | 90 | 1009.9 |
| 20260509024047 | 21 | 0 | 0.0 | 0.0 | 0.00 | 0.18 | 0.18 | 89 | 1009.9 |
| 20260509023548 | 22 | 0 | 0.0 | 0.0 | 0.00 | 0.18 | 0.18 | 89 | 1009.8 |
| 20260509023116 | 22 | 0 | 0.0 | 0.0 | 0.00 | 0.18 | 0.18 | 88 | 1009.8 |
| 20260509022548 | 22 | 0 | 0.0 | 0.0 | 0.00 | 0.18 | 0.18 | 88 | 1009.9 |
| 20260509022050 | 22 | 0 | 0.0 | 0.0 | 0.00 | 0.18 | 0.18 | 88 | 1009.9 |
| 20260509021557 | 22 | 0 | 0.0 | 0.0 | 0.00 | 0.18 | 0.18 | 88 | 1009.8 |
| 20260509021050 | 22 | 0 | 0.0 | 0.0 | 0.00 | 0.18 | 0.18 | 88 | 1009.7 |
| 20260509020549 | 22 | 0 | 0.0 | 0.0 | 0.00 | 0.18 | 0.18 | 88 | 1009.7 |
| 20260509020053 | 22 | 0 | 0.0 | 0.0 | 0.00 | 0.18 | 0.18 | 88 | 1009.6 |
| 20260509015547 | 22 | 0 | 0.0 | 0.0 | 0.00 | 0.18 | 0.18 | 88 | 1009.7 |
| 20260509015049 | 22 | 0 | 0.0 | 0.0 | 0.00 | 0.18 | 0.18 | 87 | 1009.6 |
| 20260509014553 | 22 | 0 | 0.0 | 0.0 | 0.00 | 0.18 | 0.18 | 87 | 1009.8 |
| 20260509014047 | 22 | 0 | 0.0 | 0.0 | 0.00 | 0.18 | 0.18 | 87 | 1009.6 |
| 20260509013548 | 22 | 0 | 0.0 | 0.0 | 0.00 | 0.18 | 0.18 | 87 | 1009.7 |
| 20260509013055 | 22 | 0 | 0.0 | 0.0 | 0.00 | 0.18 | 0.18 | 87 | 1009.7 |
| 20260509012547 | 22 | 0 | 0.0 | 0.0 | 0.00 | 0.18 | 0.18 | 87 | 1009.6 |
| 20260509012047 | 22 | 0 | 0.0 | 0.0 | 0.00 | 0.18 | 0.18 | 87 | 1009.5 |
| 20260509011558 | 22 | 0 | 0.0 | 0.0 | 0.00 | 0.18 | 0.18 | 87 | 1009.6 |
| 20260509011044 | 22 | 0 | 0.0 | 0.0 | 0.00 | 0.18 | 0.18 | 86 | 1009.7 |
| 20260509010546 | 22 | 0 | 0.0 | 0.0 | 0.00 | 0.18 | 0.18 | 86 | 1009.6 |
| 20260509010057 | 22 | 0 | 0.0 | 0.0 | 0.00 | 0.18 | 0.18 | 86 | 1009.6 |
| 20260509005547 | 22 | 0 | 0.0 | 0.0 | 0.00 | 0.18 | 0.18 | 86 | 1009.5 |
| 20260509005050 | 22 | 0 | 0.0 | 0.0 | 0.00 | 0.18 | 0.18 | 86 | 1009.6 |
| 20260509004555 | 22 | 0 | 0.0 | 0.0 | 0.00 | 0.18 | 0.18 | 86 | 1009.5 |
| 20260509004047 | 22 | 0 | 0.0 | 0.0 | 0.00 | 0.18 | 0.18 | 86 | 1009.5 |
| 20260509003547 | 22 | 0 | 0.0 | 1.6 | 0.00 | 0.18 | 0.18 | 86 | 1009.5 |
| 20260509003101 | 22 | 0 | 0.0 | 1.6 | 0.00 | 0.18 | 0.18 | 86 | 1009.4 |
| 20260509002546 | 23 | 0 | 0.0 | 1.6 | 0.00 | 0.18 | 0.18 | 86 | 1009.5 |
| 20260509002044 | 23 | 0 | 0.0 | 0.0 | 0.00 | 0.18 | 0.18 | 86 | 1009.5 |
| 20260509001550 | 23 | 0 | 0.0 | 1.6 | 0.00 | 0.18 | 0.18 | 86 | 1009.6 |
| 20260509001046 | 23 | 0 | 0.0 | 1.6 | 0.00 | 0.18 | 0.18 | 85 | 1009.7 |
| 20260509000549 | 23 | 0 | 0.0 | 0.0 | 0.00 | 0.18 | 0.18 | 85 | 1009.8 |
| 20260509000053 | 23 | 0 | 0.0 | 0.0 | 0.00 | 0.18 | 0.18 | 85 | 1009.7 |
| 20260508235543 | 23 | 0 | 0.0 | 0.0 | 0.00 | 0.18 | 0.18 | 85 | 1009.8 |
| 20260508235043 | 23 | 0 | 0.0 | 0.0 | 0.00 | 0.18 | 0.18 | 84 | 1009.8 |
| 20260508234556 | 23 | 0 | 0.0 | 0.0 | 0.00 | 0.18 | 0.18 | 84 | 1009.9 |
| 20260508234043 | 23 | 0 | 0.0 | 3.2 | 0.00 | 0.18 | 0.18 | 84 | 1009.9 |
| 20260508233543 | 23 | 0 | 0.0 | 3.2 | 0.00 | 0.18 | 0.18 | 84 | 1009.8 |
| 20260508233054 | 23 | 0 | 0.0 | 4.8 | 0.00 | 0.18 | 0.18 | 84 | 1009.8 |
| 20260508232543 | 23 | 0 | 0.0 | 4.8 | 0.00 | 0.18 | 0.18 | 84 | 1010.0 |
| 20260508232048 | 23 | 0 | 0.0 | 1.6 | 0.00 | 0.18 | 0.18 | 83 | 1010.0 |
| 20260508231601 | 23 | 0 | 0.0 | 1.6 | 0.00 | 0.18 | 0.18 | 84 | 1009.9 |
| 20260508231044 | 23 | 0 | 0.0 | 4.8 | 0.00 | 0.18 | 0.18 | 84 | 1010.0 |
| 20260508230543 | 23 | 0 | 0.0 | 4.8 | 0.00 | 0.18 | 0.18 | 83 | 1009.9 |
| 20260508230125 | 23 | 0 | 0.0 | 1.6 | 0.00 | 0.18 | 0.18 | 83 | 1010.0 |
| 20260508225543 | 23 | 0 | 0.0 | 3.2 | 0.00 | 0.18 | 0.18 | 83 | 1010.2 |
| 20260508225046 | 23 | 0 | 0.0 | 9.7 | 0.00 | 0.18 | 0.18 | 83 | 1010.2 |
| 20260508224602 | 23 | 0 | 0.0 | 9.7 | 0.00 | 0.18 | 0.18 | 83 | 1010.2 |
| 20260508224047 | 23 | 0 | 0.0 | 6.4 | 0.00 | 0.18 | 0.18 | 83 | 1010.2 |
| 20260508223543 | 23 | 0 | 0.0 | 6.4 | 0.00 | 0.18 | 0.18 | 83 | 1010.2 |
| 20260508223047 | 23 | 82 | 0.0 | 6.4 | 0.00 | 0.18 | 0.18 | 82 | 1010.1 |
| 20260508222541 | 23 | 0 | 0.0 | 1.6 | 0.00 | 0.18 | 0.18 | 84 | 1010.3 |
| 20260508222049 | 22 | 0 | 0.0 | 9.7 | 0.00 | 0.18 | 0.18 | 83 | 1010.3 |
| 20260508221548 | 22 | 0 | 0.0 | 9.7 | 0.00 | 0.18 | 0.18 | 83 | 1010.4 |
| 20260508221043 | 22 | 0 | 0.0 | 4.8 | 0.00 | 0.18 | 0.18 | 83 | 1010.4 |
| 20260508220543 | 22 | 0 | 0.0 | 4.8 | 0.00 | 0.18 | 0.18 | 83 | 1010.4 |
| 20260508220117 | 22 | 0 | 0.0 | 6.4 | 0.00 | 0.18 | 0.18 | 84 | 1010.3 |
| 20260508215543 | 22 | 0 | 0.0 | 6.4 | 0.00 | 0.18 | 0.18 | 85 | 1010.4 |
| 20260508215043 | 22 | 101 | 0.0 | 6.4 | 0.00 | 0.18 | 0.18 | 85 | 1010.4 |
| 20260508214553 | 22 | 0 | 0.0 | 4.8 | 0.00 | 0.18 | 0.18 | 85 | 1010.5 |
| 20260508214043 | 22 | 0 | 0.0 | 4.8 | 0.00 | 0.18 | 0.18 | 85 | 1010.6 |
| 20260508213546 | 22 | 0 | 0.0 | 4.8 | 0.00 | 0.18 | 0.18 | 84 | 1010.7 |
| 20260508213053 | 22 | 0 | 0.0 | 9.7 | 0.00 | 0.18 | 0.18 | 85 | 1010.8 |
| 20260508212543 | 22 | 52 | 1.6 | 9.7 | 0.00 | 0.18 | 0.18 | 86 | 1010.6 |
| 20260508212042 | 22 | 0 | 1.6 | 9.7 | 0.00 | 0.18 | 0.18 | 85 | 1010.8 |
| 20260508211551 | 22 | 0 | 0.0 | 4.8 | 0.00 | 0.18 | 0.18 | 85 | 1011.0 |
| 20260508211046 | 22 | 0 | 0.0 | 4.8 | 0.00 | 0.18 | 0.18 | 85 | 1010.9 |
| 20260508210545 | 22 | 0 | 0.0 | 1.6 | 0.00 | 0.18 | 0.18 | 85 | 1011.1 |
| 20260508210051 | 21 | 0 | 0.0 | 6.4 | 0.00 | 0.18 | 0.18 | 86 | 1011.1 |
| 20260508205543 | 21 | 0 | 0.0 | 6.4 | 0.00 | 0.18 | 0.18 | 86 | 1011.1 |
| 20260508205044 | 21 | 0 | 0.0 | 4.8 | 0.00 | 0.18 | 0.18 | 85 | 1011.2 |
| 20260508204602 | 21 | 0 | 0.0 | 4.8 | 0.00 | 0.18 | 0.18 | 86 | 1011.3 |
| 20260508204046 | 21 | 106 | 0.0 | 1.6 | 0.00 | 0.18 | 0.18 | 87 | 1011.4 |
| 20260508203543 | 21 | 0 | 0.0 | 9.7 | 0.00 | 0.18 | 0.18 | 87 | 1011.6 |
| 20260508203049 | 21 | 0 | 0.0 | 9.7 | 0.00 | 0.18 | 0.18 | 87 | 1011.7 |
| 20260508202544 | 21 | 0 | 0.0 | 6.4 | 0.00 | 0.18 | 0.18 | 87 | 1011.7 |
| 20260508202048 | 21 | 0 | 0.0 | 9.7 | 0.00 | 0.18 | 0.18 | 88 | 1011.7 |
| 20260508201553 | 20 | 0 | 0.0 | 9.7 | 0.00 | 0.18 | 0.18 | 89 | 1011.7 |
| 20260508201043 | 20 | 0 | 0.0 | 6.4 | 0.00 | 0.18 | 0.18 | 89 | 1011.8 |
| 20260508200543 | 20 | 0 | 0.0 | 4.8 | 0.00 | 0.18 | 0.18 | 88 | 1011.9 |
| 20260508200052 | 20 | 0 | 0.0 | 3.2 | 0.00 | 0.18 | 0.18 | 88 | 1012.1 |
| 20260508195544 | 20 | 0 | 0.0 | 4.8 | 0.00 | 0.18 | 0.18 | 88 | 1012.1 |
| 20260508195044 | 20 | 0 | 0.0 | 9.7 | 0.00 | 0.18 | 0.18 | 88 | 1012.2 |
| 20260508194546 | 20 | 105 | 0.0 | 9.7 | 0.00 | 0.18 | 0.18 | 88 | 1012.2 |
| 20260508194044 | 20 | 101 | 0.0 | 6.4 | 0.00 | 0.18 | 0.18 | 88 | 1012.1 |
| 20260508193545 | 20 | 96 | 0.0 | 6.4 | 0.00 | 0.18 | 0.18 | 88 | 1012.1 |
| 20260508193057 | 20 | 100 | 0.0 | 6.4 | 0.00 | 0.18 | 0.18 | 88 | 1012.2 |
| 20260508192545 | 20 | 49 | 0.0 | 6.4 | 0.00 | 0.18 | 0.18 | 88 | 1012.4 |
| 20260508192043 | 20 | 0 | 0.0 | 6.4 | 0.00 | 0.18 | 0.18 | 88 | 1012.3 |
| 20260508191549 | 20 | 0 | 0.0 | 6.4 | 0.00 | 0.18 | 0.18 | 88 | 1012.3 |
| 20260508191042 | 20 | 0 | 0.0 | 6.4 | 0.00 | 0.18 | 0.18 | 88 | 1012.3 |
| 20260508190543 | 20 | 107 | 0.0 | 8.0 | 0.00 | 0.18 | 0.18 | 88 | 1012.4 |
| 20260508190104 | 20 | 84 | 0.0 | 8.0 | 0.00 | 0.18 | 0.18 | 88 | 1012.5 |